Find Starlink 31809

NORAD ID: 59743 Int'l Des: 2024-090 Owner: SPXS Country: US Constellation: starlink operational
LEOCIRCULAR

現在のビュー

3D地球を読み込み中...

About Starlink 31809

Starlink 31809 (NORAD 59743) is a starlink constellation satellite (v2 mini) launched May 13, 2024 by SPXS of US. It operates in LEO, CIRCULAR orbit with a mass of 730.00 kg.

Starlink 31809について

説明を読み込み中...

次回通過

Passes for default location (London). Set your location on the main map for personalized predictions.

高度履歴

Loading altitude history...

軌道要素

1 59743U 24090P 26170.12129531 -.00000694 00000-0 -15687-4 0 9995
2 59743 42.9995 323.6656 0001168 275.3765 84.6953 15.27574715119033
Epoch: Jun 19, 2026 • Age: 13 hours

現在のステータス

高度 482.6 km
速度 7.63 km/s
衛星直下点 16.50°N, 27.9°W
打ち上げ日 May 13, 2024
運用期間 2 years
タイプ internet

技術仕様

分類 Payload
質量 730.00 kg
乾燥質量 700.00 kg
総質量 730.00 kg
長さ 0.30 m
直径 4.10 m
スパン 29.00 m
形状 Box + pan
製造者 SPXS
バスタイプ Starlink V2M
フェーズステータス In Orbit
所有者/国 SPXS/US

Most Searched